Back to catalog

ARIANE 42L R/B

AliveGTO
NORAD 27299·ROCKET BODY·🇫🇷 France

Launched Jan 23, 2002 from Guiana Space Centre

Loading…

TLE

FreshSource: Space-Track

Epoch: Sep 14, 2026, 13:22 UTC

1 27299U 02002B   26257.55745250  .00000222  00000-0  11699-2 0  9992
2 27299   4.2264  51.6553 7249964 193.9985 122.7754  2.22289729198783

Track ARIANE 42L R/B in real time with AllMySat

Download on the App Store